Location: Pebble Beach Sunset Acres
(33.0837°N, 96.4508°W)
Time: 01:43:58
(UTC+00:00)

DELTA 2 R/B (1) - Pass Details

Date: 27 June 2022
Orbit: 790 x 803 km, 39.6° (Epoch: 15 August)

Event Time Altitude Azimuth Distance (km) Brightness Sun altitude
Rises 03:36:52 0° 292° (WNW) 3,298 7.9 -20.3°
Reaches altitude 10° 03:39:24 10° 297° (WNW) 2,368 7.0 -20.6°
Maximum altitude 03:44:55 58° 16° (NNE) 927 4.0 -21.4°
Enters shadow 03:47:42 29° 84° (E) 1,443 4.6 -21.8°
